This demonstration page uses our WeatherBlox Daily Observations layout. Learn more.

39.92423, -83.80882

Hourly Observations for September 23, 2018

Temp ( °F °C ) Dew Point ( °F °C ) Humidity (%) Winds ( mph kmh ) Pressure ( in mb ) Visibility ( mi km ) Precip ( " mm )
12:56 am 00:56 Clear 53 11.7 53 11.7 100 100 ENE 5 7 30.2 1023 10 16.0934 0 0
1:56 am 01:56 Clear 53 11.7 53 11.7 100 100 ENE 7 11 30.18 1022 10 16.0934 0 0
2:56 am 02:56 Clear 53 11.7 52 11.1 96 96 ENE 7 11 30.17 1022 10 16.0934 0 0
3:56 am 03:56 Clear 53 11.7 52 11.1 96 96 ENE 7 11 30.16 1021 10 16.0934 0 0
4:56 am 04:56 Clear 53 11.7 52 11.1 96 96 ENE 7 11 30.15 1021 10 16.0934 0 0
5:56 am 05:56 Clear 53 11.7 52 11.1 96 96 ENE 7 11 30.15 1021 10 16.0934 0 0
6:56 am 06:56 Clear 52 11.1 52 11.1 100 100 ENE 6 9 30.15 1021 10 16.0934 0 0
7:56 am 07:56 Sunny 52 11.1 52 11.1 100 100 E 7 11 30.16 1021 10 16.0934 0 0
8:56 am 08:56 Sunny 54 12.2 53 11.7 97 97 ENE 8 13 30.17 1022 10 16.0934 0 0
9:56 am 09:56 Sunny 57 13.9 53 11.7 87 87 ENE 10 17 30.18 1022 10 16.0934 0 0
10:56 am 10:56 Sunny 59 15 53 11.7 81 81 ENE 12 19 30.19 1022 10 16.0934 0 0
11:56 am 11:56 Sunny 61 16.1 53 11.7 75 75 ENE 10 17 30.19 1022 10 16.0934 0 0
12:56 pm 12:56 Sunny 65 18.3 54 12.2 68 68 ENE 9 15 30.17 1022 10 16.0934 0 0
1:56 pm 13:56 Sunny 67 19.4 54 12.2 63 63 ENE 10 17 30.15 1021 10 16.0934 0 0
2:56 pm 14:56 Sunny 69 20.6 54 12.2 59 59 NE 8 13 30.13 1020 10 16.0934 0 0
3:56 pm 15:56 Sunny 72 22.2 52 11.1 50 50 E 9 15 30.11 1020 10 16.0934 0 0
4:56 pm 16:56 Sunny 72 22.2 52 11.1 50 50 ENE 7 11 30.11 1020 10 16.0934 0 0
5:56 pm 17:56 Sunny 72 22.2 51 10.6 48 48 E 9 15 30.11 1020 10 16.0934 0 0
6:56 pm 18:56 Sunny 68 20 51 10.6 55 55 E 9 15 30.12 1020 10 16.0934 0 0
7:56 pm 19:56 Partly Cloudy 63 17.2 53 11.7 70 70 E 6 9 30.13 1020 10 16.0934 0 0
8:56 pm 20:56 Cloudy 63 17.2 54 12.2 73 73 E 6 9 30.14 1021 10 16.0934 0 0
9:56 pm 21:56 Mostly Clear 60 15.6 55 12.8 84 84 ENE 8 13 30.14 1021 10 16.0934 0 0
10:56 pm 22:56 Clear 60 15.6 54 12.2 80 80 E 8 13 30.15 1021 10 16.0934 0 0
11:56 pm 23:56 Clear 60 15.6 56 13.3 86 86 E 7 11 30.15 1021 10 16.0934 0 0

Powered by AerisWeather